map of GYR home
GYR - Airport
Location
City:  Goodyear, Arizona, United States
Name:Phoenix Goodyear Airport
ICAO:KGYR
IATA:GYR
FAA LID:GYR

Details
Type:Airport (Airfield)
Use:Public/Civil
Latitude:3325'24"N (33.423286)
Longitude:11222'31"W (-112.375353)
Datum:WGS 1984
Elevation:968 ft (295 m)
Variation:10.37E (WMM2015 magnetic declination)
-0.09 annual change
Runways:1
Longest:8500 × 150 ft (2591 × 45.5 m), paved

Time
Time Zone:UTC-7
Local Time:

Weather
METAR:KGYR 180347Z 22007KT 10SM SCT080 SCT180 BKN250 37/19 A2984 RMK LAST

Related Locations
Nearby:
Farthest:RRG: 11454 mi / 18434 km
Plaine Corail [Sir Gatan Duval Airport (Plaine Corail Airport)], Rodrigues Island, MU

Find:

   beyond  
but within

Other Information
Maps:
NOTAMs:
Links:
Sources:

  
  • flag of United States
  • flag of Arizona
  

Airport Diagram

Airport diagram for GYR

Airport diagram PDF

Sectional Chart

Flight Planning
at skyvector.com

Satellite Image

Google Maps Satellite view

 

Copyright © 2004-2018 Karl L. Swartz. All rights reserved.
The Great Circle Mapper name and logo are trademarks of the Great Circle Mapper.
All other trademarks mentioned herein belong to their respective owners.
Please see credits for attibutions and further copyright information.

  Follow gcmap on Facebook Follow gcmap on Twitter Follow gcmap on Google+ GCmap on LinkedIn

hCard Microformat

Geo Microformat